This is the latest recevied weather packets stored in our database for station/object KO4FR. If no packets are shown the sender has not sent any weather packets the latest 10 day(s).
| Time | Temp. | Humidity | Pressure | Rain* | Wind** | Luminosity | Snow |
|---|---|---|---|---|---|---|---|
| 1777624189 | 5° C | 55% | 1016.2 hPa | 0 mm | - | - | - |
| 1777623889 | 5° C | 54% | 1016.1 hPa | 0 mm | - | - | - |
| 1777623589 | 5° C | 53% | 1016.1 hPa | 0 mm | - | - | - |
| 1777623289 | 5° C | 55% | 1016.1 hPa | 0 mm | - | - | - |
| 1777622989 | 5° C | 59% | 1016.1 hPa | 0 mm | - | - | - |
| 1777622689 | 5° C | 60% | 1015.9 hPa | 0 mm | - | - | - |
| 1777622389 | 5° C | 61% | 1015.9 hPa | 0 mm | - | - | - |
| 1777622089 | 5.56° C | 63% | 1015.9 hPa | 0 mm | - | - | - |
| 1777621789 | 5.56° C | 63% | 1015.8 hPa | 0 mm | - | - | - |
| 1777621489 | 5.56° C | 63% | 1015.8 hPa | 0 mm | - | - | - |
| 1777621189 | 5.56° C | 63% | 1015.7 hPa | 0 mm | - | - | - |
| 1777620889 | 6.11° C | 61% | 1015.7 hPa | 0 mm | - | - | - |
| 1777620589 | 6.11° C | 62% | 1015.8 hPa | 0 mm | - | - | - |
| 1777620289 | 6.11° C | 66% | 1015.8 hPa | 0 mm | - | - | - |
| 1777619989 | 6.11° C | 68% | 1015.6 hPa | 0 mm | - | - | - |
| 1777619689 | 6.67° C | 69% | 1015.4 hPa | 0 mm | - | - | - |
| 1777619389 | 6.67° C | 69% | 1015.5 hPa | 0 mm | - | - | - |
| 1777619089 | 6.67° C | 69% | 1015.5 hPa | 0 mm | - | - | - |
| 1777618789 | 7.22° C | 70% | 1015.6 hPa | 0 mm | - | - | - |
| 1777618489 | 7.22° C | 70% | 1015.5 hPa | 0 mm | - | - | - |
| 1777618189 | 7.22° C | 69% | 1015.4 hPa | 0 mm | - | - | - |
| 1777617889 | 7.22° C | 69% | 1015.4 hPa | 0 mm | - | - | - |
| 1777617589 | 7.22° C | 70% | 1015.4 hPa | 0 mm | - | - | - |
| 1777617289 | 7.22° C | 72% | 1015.3 hPa | 0 mm | - | - | - |
| 1777616989 | 7.78° C | 72% | 1015.2 hPa | 0 mm | - | - | - |
* Rain latest hour (hover to see other rain measurements)
** Current wind speed in m/s (hover to see current wind gust speed)